Tracking 29892 objects as of 21-Nov-2024
HD Live streaming from Space Station
objects crossing your sky now

SL-18 DEB

Track SL-18 DEB now!
10-day predictions


NORAD ID: 28292
Int'l Code: 1993-014V
Perigee: 657.4 km
Apogee: 853.9 km
Inclination: 75.8 °
Period: 99.8 minutes
Semi major axis: 7126 km
RCS: 0.016 m2 (small)
Launch date: March 25, 1993
Source: Commonwealth of Independent States (former USSR) (CIS)
Launch site: PLESETSK MISSILE AND SPACE COMPLEX (PKMTR)

Note: This is SATELLITE DEBRIS
Your satellite tracking list
Your tracking list is empty




NASA's NSSDC Master Catalog

Two Line Element Set (TLE):
1 28292U 93014V   24325.18931754  .00006896  00000-0  18377-2 0  9991
2 28292  75.7589 278.0343 0137901 338.9679  20.5846 14.43027944601065
Source of the keplerian elements: AFSPC